Regional Weather Roundup
Issued by NWS Newport/Morehead, NC

Current Version | Previous Version | Graphics & Text | Print | Product List | Glossary Off
Versions: 1 2 3 4 5 6 7 8 9 10 11 12 13 14 15 16 17 18 19 20 21 22 23 24 25 26 27 28 29 30 31 32 33 34 35 36 37 38 39 40 41 42 43 44 45 46 47 48 49 50
000 ASUS42 KMHX 272310 RWRMHX WEATHER ROUNDUP FOR EASTERN NORTH CAROLINA NATIONAL WEATHER SERVICE NEWPORT/MOREHEAD CITY NC 600 PM EST THU NOV 27 2014 NOTE: "FAIR" INDICATES FEW OR NO CLOUDS BELOW 12,000 FEET WITH NO SIGNIFICANT WEATHER AND/OR OBSTRUCTIONS TO VISIBILITY NCZ015>017-031-032-045>047-102-103-280000- NORTH COAST CITY SKY/WX TMP DP RH WIND PRES REMARKS EDENTON CLEAR 41 38 89 NW5 30.10R ELIZABETH CITY CLEAR 43 37 79 NW8 30.09R KITTY HAWK CLOUDY 44 39 81 NW6 30.06R MANTEO CLOUDY 44 38 80 NW8 30.07R $$ NCZ045>047-081-094-103-104-280000- CENTRAL COAST CITY SKY/WX TMP DP RH WIND PRES REMARKS FRISCO MOCLDY 48 43 82 VRB6 30.05R SWANQUARTER N/A 45 N/A N/A N5G18 30.06R $$ NCZ095-097-098-100-101-280000- SOUTHERN COAST CITY SKY/WX TMP DP RH WIND PRES REMARKS BEAUFORT PTCLDY 46 39 76 NW20 30.11R CEDAR ISLAND N/A 48 N/A N/A NW28 30.12R JACKSONVILLE PTCLDY 45 38 76 NW9 30.13R PINEY ISLAND MOCLDY 49 40 71 NW18G25 30.09R WILMINGTON CLEAR 46 39 76 NW9 30.14R $$ NCZ011>013-027>030-043-044-078>080-089-090>093-098-280000- COASTAL PLAIN CITY SKY/WX TMP DP RH WIND PRES REMARKS AHOSKIE CLOUDY 42 38 86 CALM 30.12R CLINTON CLEAR 42 37 84 CALM 30.16R ELIZABETHTOWN CLEAR 45 37 74 CALM 30.15R GOLDSBORO CLEAR 44 41 90 CALM 30.12R GREENVILLE CLEAR 43 37 81 CALM 30.14R HAVELOCK CLEAR 46 38 73 NW13 30.12R KENANSVILLE CLEAR 44 36 74 NW3 30.15R KINSTON NOT AVBL NEW BERN CLEAR 45 38 76 NW5 30.13R RICHLANDS CLEAR 45 36 70 W3 30.14R ROCKY MOUNT CLOUDY 44 36 73 NW5 30.14R WASHINGTON CLEAR 42 38 86 CALM 30.12R WHITEVILLE CLEAR 45 38 78 CALM 30.16R $$ AMZ130-135-150-152-154-156-158-170-250-252-270-ANZ085-086-088-633-658-670-280000- MARINE OBSERVATIONS STATION/POSITION TIME TEMP WIND PRES WAVE SWELL AIR SEA DIR/SP/G HT/PER HT/PER (UTC) (F) (DEG/KT/KT) (MB) (FT/S) (FT/S) CHESAPEAKE LIGHT 2200 44 350/ 22/ 25 1017.8 64 E VA BEACH 2300 49 62 330/ 23/ 27 1015.8 5/ 9 3/ 9 DUCK 2300 44 54 330/ 17/ 19 1017.1 2 E DUCK 2200 56 N/A 4/ 9 10 NE DUCK 2300 58 N/A 5/ 9 2/14 OREGON INLET 2300 45 56 320/ 13/ 19 1017.7 13E OREGON INLT 2200 60 N/A 5/ 9 2/11 HATTERAS CG 2300 50 59 340/ 22/ 26 1017.7 DIAMOND BUOY 2300 53 320/ 21/ 27 1016.2 6/ 9 3/ 9 17 S OCRACOKE NOT AVBL CAPE LOOKOUT 2200 50 330/ 18/ 24 1017.4 BEAUFORT LAB 2300 47 57 330/ 13/ 17 1018.4 30 SE NEW RIVER 2300 52 66 330/ 23/ 29 1019.1 7/ 5 2/ 9 5 SE WRIGHTSVLE 2200 48 59 320/ 21/ 27 1019.0 225 S CAPE HAT 2151 65 73 280/ 25/ 35 1016.6 11/ 8 41 SE CHARLESTON 2300 56 72 320/ 19/ 25 1020.9 6/ 5 2/ 9 $$

USA.gov is the U.S. government's official web portal to all federal, state and local government web resources and services.